www.pogodaiklimat.ru

Погода и климат >> Архив погоды >> Канада >> Henderickson Auto


ПОГОДА в Henderickson Auto

  • Прогноз погоды в Henderickson Auto
  • Монитор погоды в Henderickson Auto
  • Климат города

АРХИВ ПОГОДЫ в Henderickson Auto

Время (UTC), дата Ветер
(напр.,м/с)
 
Видим.   Явления Облачность Т
(С)
Тd
(С)
f
(%)
Тe
(С)
Тes
(С)
Комфортность P
(гПа)
Po
(гПа)
Тmin
(С)
Tmax
(С)
R
(мм)
R24
(мм)
S
(см)
09 18.04 штиль 0 н/о н/о -6.6 -8.2 88 -7 -7 1013.4 847.1 0.9
12 18.04 З 1 н/о {осадки} н/о -7.6 -9.4 87 -10 -10 1013.9 846.9 -7.6 +1.7 2 71
15 18.04 штиль 0 н/о н/о -5.9 -9.3 77 -7 -7 1013.7 846.6 2
18 18.04 В 2 н/о {осадки} н/о -2.7 -7.0 72 -6 -6 1012.8 846.2 -7.8 -2.6 2
21 18.04 ЮВ 2 н/о н/о -0.4 -5.2 70 -3 -3 1012.3 846.0 0.2
00 19.04 В 2 н/о {осадки} н/о -1.2 -4.0 81 -5 -5 1012.9 846.3 -7.8 +0.6 0.5
03 19.04 В 2 н/о н/о -2.1 -3.4 91 -5 -5 1013.0 846.5
06 19.04 В 2 н/о н/о -2.5 -3.2 95 -7 -7 1013.3 847.2 -7.8 +0.6
09 19.04 штиль 0 н/о {осадки} н/о -2.9 -3.5 96 -4 -4 1013.7 847.8 1
12 19.04 штиль 0 н/о {осадки} н/о -4.8 -5.8 93 -6 -6 1015.4 848.8 -4.8 +0.6 1 70
15 19.04 штиль 0 н/о {осадки} н/о +0.2 -2.8 80 -1 -1 1015.3 849.4 0.2
18 19.04 Ю 1 н/о {осадки} н/о +6.3 -3.0 51 +6 +6 1015.1 850.1 -7.4 +7.9 0.8
21 19.04 ЮЗ 2 н/о н/о +6.9 -7.8 34 +5 +5 1015.2 850.2 0.2
00 20.04 Ю 2 н/о н/о +7.9 -7.1 34 +7 +7 1015.2 850.1 -7.4 +10.7 0.2
03 20.04 В 1 н/о н/о +0.5 -3.6 74 0 0 1015.7 850.1
06 20.04 СЗ 1 н/о н/о -2.8 -4.6 87 -4 -4 1015.2 850.1 -7.4 +10.7
09 20.04 СЗ 1 н/о н/о -4.7 -5.7 93 -7 -7 1015.3 850.0
12 20.04 СЗ 1 н/о н/о -7.9 -8.9 93 -10 -10 1016.8 850.9 -8.0 +10.7 64
15 20.04 штиль 0 н/о н/о +0.4 -3.2 77 -1 -1 1016.7 851.0
18 20.04 ЮЗ 1 н/о {осадки} н/о +8.3 -6.3 35 +8 +8 1015.9 851.0 -8.2 +9.4 0.6
21 20.04 З 2 н/о н/о +8.8 -9.4 27 +8 +8 1016.7 851.5
00 21.04 СЗ 3 н/о н/о +6.4 -4.0 47 +4 +4 1019.6 853.0 -8.2 +11.2
03 21.04 В 1 н/о н/о +1.4 -0.3 88 +1 +1 1021.6 855.2
06 21.04 СЗ 1 н/о н/о -1.7 -2.4 95 -3 -3 1022.8 857.0 -8.2 +11.2
09 21.04 штиль 0 н/о н/о -3.6 -4.3 95 -5 -5 1024.3 858.0 0.3
12 21.04 З 1 н/о {осадки} н/о -6.8 -7.6 94 -8 -8 1026.7 859.1 -7.0 +11.2 0.3 62
15 21.04 З 3 н/о {осадки} н/о +3.8 -4.7 54 +1 +1 1026.7 860.0 0.4
18 21.04 З 2 н/о {осадки} н/о +8.6 -7.4 31 +8 +8 1025.6 859.4 -7.5 +9.0 0.4
21 21.04 З 4 н/о н/о +11.0 -9.4 23 +10 +10 1025.4 859.3
00 22.04 СЗ 3 н/о н/о +8.3 -8.8 29 +6 +6 1026.1 858.9 -7.5 +12.1
03 22.04 С 2 н/о н/о +4.3 -5.1 50 +2 +2 1024.7 858.8
06 22.04 штиль 0 н/о н/о -3.4 -4.7 91 -5 -5 1025.5 859.0 -7.5 +12.1
09 22.04 З 1 н/о н/о -5.7 -6.5 94 -7 -7 1023.4 857.3
12 22.04 В 1 н/о н/о -6.5 -7.5 93 -7 -7 1022.1 855.6 -7.8 +12.1 58
15 22.04 штиль 0 н/о н/о -2.0 -2.9 94 -3 -3 1021.8 855.5
18 22.04 В 3 н/о н/о -0.7 -1.6 94 -5 -5 1022.8 855.3 -7.8 -0.3
21 22.04 В 3 н/о {осадки} н/о -0.6 -1.7 92 -6 -6 1021.5 853.8 1
00 23.04 ЮВ 4 н/о {осадки} н/о -2.3 -3.4 92 -8 -8 1020.5 852.6 -7.8 +0.1 2
03 23.04 В 4 н/о н/о -4.0 -5.0 93 -10 -10 1018.4 851.3 0.4
06 23.04 В 4 н/о {осадки} н/о -4.6 -5.7 92 -11 -11 1015.8 849.2 -7.8 +0.1 1
09 23.04 ЮВ 3 н/о н/о -4.9 -6.0 92 -11 -11 1013.0 846.9 0.2
12 23.04 В 2 н/о {осадки} н/о -4.8 -5.5 95 -8 -8 1011.6 845.4 -4.9 +0.1 0.2 61
15 23.04 ЮВ 1 н/о {осадки} н/о -3.2 -4.8 89 -6 -6 1010.7 844.7 0.5
18 23.04 С 1 н/о {осадки} н/о +0.9 -2.8 76 +1 +1 1009.4 844.1 -4.9 +1.4 1
21 23.04 С 2 н/о {осадки} н/о +2.4 -1.1 78 0 0 1008.3 843.4 0.6
00 24.04 В 2 н/о {осадки} н/о +0.5 -0.7 92 -3 -3 1008.4 843.2 -4.9 +3.5 2
03 24.04 С 2 н/о н/о -1.1 -2.0 94 -4 -4 1008.2 843.0 2
06 24.04 СЗ 1 н/о {осадки} н/о -2.4 -3.7 91 -5 -5 1007.5 842.9 -4.9 +3.5 4
09 24.04 СЗ 1 н/о {осадки} н/о -3.1 -3.9 94 -4 -4 1007.0 842.6 0.2
12 24.04 З 1 н/о {осадки} н/о -3.7 -5.1 90 -4 -4 1007.0 842.2 -3.7 +3.5 1 69
15 24.04 С 2 н/о {осадки} н/о -3.1 -5.6 83 -7 -7 1007.6 842.5 1
18 24.04 С 2 н/о {осадки} н/о -1.9 -5.1 79 -5 -5 1008.3 843.1 -3.9 -1.4 1
21 24.04 С 2 н/о н/о -1.3 -4.6 78 -5 -5 1009.4 844.0 0.5
00 25.04 С 3 н/о {осадки} н/о -2.5 -6.1 76 -7 -7 1011.3 845.3 -3.9 -0.7 1
03 25.04 СЗ 1 н/о н/о -4.6 -6.5 87 -7 -7 1013.2 846.7 0.2

 

Местоположение метеостанции Henderickson Auto (Канада): широта 53.78 долгота -118.40 высота над уровнем моря 1432 м.

В архиве по умолчанию представлена погода в Henderickson Auto за последнюю неделю. Архивные данные за месяц целиком и за предыдущие месяцы, начиная с января 2011 года, Вы можете получить, выбрав интересующий диапазон дат из раскрывающегося списка и нажав кнопку "Ввод!".

Внимание! Время в таблицах - всемирное. Для получения местного времени необходимо прибавить поправку, которая в Henderickson Auto равна -7 ч.

Смотрите также архив погоды в соседних городах и на ближайших метеорологических станциях:

Погода в Willow Creek 1 (Канада) (45 км)
Погода в Jasper Warden (Канада) (98 км)
Погода в Jasper (Канада) (104 км)
Погода в Edson AB (Канада) (134 км)
Погода в Grande Prairie (Канада) (158 км)
Погода в Valley View Agdm (Канада) (166 км)
Погода в Beaverlodge Cda (Канада) (171 км)
Погода в Teepee Creek Agcm (Канада) (175 км)
Погода в Whitecourt (Канада) (181 км)
Погода в Whitecourt Alta (Канада) (181 км)

Пояснения к столбцам:

Ветер - указаны скорость ветра в м/с - средняя за 10 мин, порывы в срок и между сроками (в фигурных скобках) и направление, откуда дует ветер: С - северный, СВ - северо-восточный, В - восточный, ЮВ - юго-восточный, Ю - южный, ЮЗ - юго-западный, З - западный, СЗ - северо-западный.
Видимость - горизонтальная дальность видимости в метрах или километрах. При видимости от 1 до 10 км при отсутствии осадков обычно наблюдается дымка, при ухудшении видимости до 1 км и менее - туман. В сухую погоду видимость может ухудшаться дымом, пылью или мглою.
Явления - указаны атмосферные явления, наблюдавшиеся в срок или в последний час перед сроком; фигурными скобками обозначены явления, наблюдавшиеся между сроками (за 1-3 часа до срока); квадратными скобками обозначены град или гололедные отложения с указанием их диаметра в мм.
Облачность - указаны через наклонную черту общая и нижняя облачность в баллах и высота нижней границы облаков в метрах; квадратными скобками обозначены формы облаков: Ci - перистые, Cs - перисто-слоистые, Cc - перисто-кучевые, Ac - высококучевые, As - высокослоистые, Sc - слоисто-кучевые, Ns - слоисто-дождевые, Cu - кучевые, Cb - кучево-дождевые. Подробнее классификацию облаков см. в Атласе облаков (PDF).
T - Температура воздуха - температура, измеренная на высоте 2 м над землей.
Td - Температура точки росы - температура, при понижении до которой содержащийся в воздухе водяной пар достигнет насыщения.
f - Относительная влажность воздуха - влажноcть воздуха, измеренная на высоте 2 м над землей.
Te - Эффективная температура - температура, которую ощущает одетый по сезону человек в тени. Характеристика душности погоды. При расчете учитывается влияние влажности воздуха и скорости ветра на теплоощущения человека.
Tes - Эффективная температура на солнце - температура, которую ощущает человек, с поправкой на солнечный нагрев. Характеристика знойности погоды. Зависит от высоты солнца над горизонтом, облачности и скорости ветра. Ночью, в пасмурную погоду, а также при ветре 12 м/с и более поправка равна нулю.
P - Атмосферное давление - приведенное к уровню моря атмосферное давление.
Po - Атмосферное давление - измеренное на уровне метеостанции атмосферное давление.
Tmin - Минимальная температура - минимум температуры воздуха на высоте 2 м над землей.
Tmax - Максимальная температура - максимум температуры воздуха на высоте 2 м над землей.
R - Количество осадков - Количество выпавших осадков за период времени, мм. При наведении курсора мыши на число - период времени, за который выпало указанное количество осадков.
R24 - Количество осадков - Количество выпавших осадков за 24 часа, мм.
S - Снежный покров - Высота снежного покрова, см. При наведении курсора мыши на число - состояние снежного покрова и степень покрытия местности в баллах.